Theta_e
328 332 331 335 335 335 336 336 337 334 341 346 350 354 350 350 348 345 344 345 345 342
325 327 327 329 328 328 332 334 335 333 336 340 344 347 350 348 349 351 353 351 349 346
323 324 325 326 326 328 329 329 333 331 333 333 338 341 346 345 347 349 348 349 348 349
319 319 323 323 323 325 327 328 329 332 333 332 332 336 339 341 340 338 345 347 346 346
315 317 319 318 319 322 323 324 325 328 331 329 328 331 331 329 329 332 335 338 340 341
316 317 318 319 319 319 318 318 320 322 323 326 329 329 329 327 327 328 329 331 333 335
315 317 316 319 319 320 319 318 318 318 319 322 325 327 327 328 330 329 327 329 330 330
314 316 316 316 317 318 320 318 319 318 318 320 321 320 320 321 325 330 329 330 326 329
313 313 317 315 315 317 317 318 318 318 318 319 317 305 307 310 317 321 326 327 327 327
313 311 312 313 314 315 316 320 319 318 318 318 320 305 305 306 314 318 321 326 328 324
312 311 312 313 314 316 316 317 318 316 317 318 318 308 306 305 316 319 321 323 324 326
313 312 312 312 313 314 315 316 316 317 317 317 318 307 306 307 316 318 320 319 320 322
313 313 312 313 313 314 312 312 314 315 317 314 317 309 305 308 313 315 314 321 322 310
312 313 313 314 314 312 314 315 316 316 316 317 317 315 304 304 313 310 311 311 312 314
Wind_Speed
8 5 8 9 6 4 4 4 5 9 14 9 2 2 5 6 7 11 11 12 10 8
11 11 9 9 7 7 8 5 7 7 7 12 6 4 3 5 8 10 8 10 10 10
11 12 10 8 9 7 5 6 7 5 4 11 10 6 5 7 8 7 7 7 10 9
10 10 9 8 8 7 8 7 5 2 5 8 8 7 7 7 8 9 7 7 9 11
7 8 8 7 9 9 9 8 10 11 9 8 7 8 8 9 7 8 9 9 7 7
4 5 6 5 5 5 6 7 10 9 10 12 10 10 10 10 9 8 9 10 9 9
3 4 6 7 7 5 2 3 4 5 7 9 10 12 9 10 11 9 9 9 9 10
7 7 7 7 8 7 7 6 7 6 7 8 7 5 4 8 12 13 9 9 9 9
4 5 5 6 8 7 6 7 8 8 7 8 6 6 3 4 8 13 13 10 10 10
5 5 4 7 8 7 6 5 7 8 8 8 8 8 3 2 8 11 12 12 10 12
7 10 9 8 8 7 8 9 7 9 9 8 7 9 4 2 9 10 11 11 12 11
10 11 11 10 10 10 11 8 8 8 9 9 9 10 6 3 9 10 9 9 10 10
12 11 13 13 12 8 8 10 8 8 6 7 8 8 8 4 7 10 9 9 9 6
11 11 10 11 10 11 10 10 10 10 8 8 10 5 14 11 5 8 9 10 8 5
Wind_Direction
27 20 43 35 47 25 23 347 18 325 359 336 344 231 260 261 233 219 230 234 224 241
38 40 38 36 33 1 352 350 12 24 355 312 327 310 258 258 253 261 254 244 231 234
28 27 32 41 26 8 16 355 342 27 343 305 321 315 305 267 235 246 257 256 254 246
12 13 15 19 16 10 5 349 336 243 250 276 296 304 305 303 296 278 260 255 267 268
2 357 355 10 0 353 3 4 359 334 329 281 274 293 296 286 311 301 293 297 265 298
346 347 355 344 353 341 339 338 343 335 334 339 338 315 297 304 304 305 300 295 300 289
357 339 333 316 346 321 287 285 264 277 309 317 322 308 318 329 320 307 301 312 301 296
352 337 322 320 326 329 317 334 316 315 300 273 275 304 2 350 321 305 292 291 294 290
280 271 277 305 310 304 309 317 316 297 298 303 288 109 71 353 311 300 297 295 289 297
304 296 307 310 299 302 298 295 282 290 290 293 289 157 150 343 298 293 295 295 298 292
327 324 314 310 310 316 316 302 284 290 283 279 286 166 159 286 283 272 267 275 286 285
319 310 313 315 323 325 308 302 307 279 278 279 278 172 177 273 304 286 288 291 285 281
307 311 324 325 320 311 300 293 273 284 297 287 275 248 159 217 298 296 293 288 271 273
319 333 307 295 299 299 285 298 301 300 291 292 287 182 180 178 262 291 314 304 298 302